Location: Antioch Baptist Church
(32.6696°N, 85.7327°W)
Time: 11:50:53
(UTC+00:00)

Cosmos 1408 - Pass Details

Date: 14 July 2020
Orbit: 471 x 493 km, 82.6° (Epoch: 08 August)

Event Time Altitude Azimuth Distance (km) Brightness Sun altitude
Exits shadow 03:30:34 33° 344° (NNW) 804 4.1 -26.5°
Drops below altitude 10° 03:32:44 10° 359° (N) 1,636 5.9 -26.7°
Sets 03:34:51 0° 2° (N) 2,517 7.0 -27.0°
